[[{"header":{"parameterUnit":"m.s-1","parameterCategory":1,"la1":30.2991,"la2":30.254,"lo1":-89.0895,"lo2":-89.0444,"dy":0.0017,"dx":0.0017,"nx":28,"ny":28,"refTime":"2025-07-19T21:00:00:Z","depth":0,"parameterNumber":2,"parameterNumberName":"U-component_of_WINDS"},"data":[0,0,0,0,0,0,0,0,0,0,0,0,0,0,0,0,0,0,0,0,0,0,0,0,0,0,0,0,0,0,0,0,0,0,0,0,0,0,0,0,0,0,0,0,0,0,0,0,0,0,0,0,0,0,0,0,0,0,3.2681,3.2682,0,3.2752,3.2753,3.2753,3.2657,3.2654,3.265,3.2647,3.2722,3.2727,3.2732,0,0,0,0,0,0,0,0,0,0,0,0,0,3.2463,3.2468,3.2681,3.2682,3.2683,3.2752,3.2753,3.2754,3.2658,3.2653,3.2649,3.2645,3.272,3.2726,3.2733,0,0,0,0,0,0,0,0,0,0,0,0,0,3.2549,3.2469,3.2681,3.2643,3.2641,3.2752,3.2753,3.2754,3.2659,3.2653,3.2648,3.2643,3.2718,3.2726,3.2734,3.2886,0,0,3.2758,3.2761,0,0,0,0,0,0,0,0,3.2544,3.2557,3.2648,3.2646,3.2643,3.269,3.2703,3.2798,3.266,3.2652,3.2647,3.2641,3.2716,3.2724,3.2748,3.2889,3.2892,3.2758,3.2763,3.2766,3.2769,0,0,0,0,0,0,0,3.2538,3.2553,3.2709,3.2649,3.2647,3.2623,3.2629,3.2721,3.2712,3.2652,3.2645,3.2655,3.2714,3.2741,3.2749,3.2894,3.2758,3.2765,3.277,3.2773,3.3159,3.3165,0,0,0,0,0,0,3.2537,3.2549,3.2707,3.2711,3.258,3.2631,3.2638,3.2681,3.2711,3.271,3.2659,3.265,3.273,3.274,3.2752,3.2929,3.2766,3.2774,3.2778,3.3154,3.316,3.3166,0,0,0,0,0,0,3.2532,3.2552,3.2704,3.2628,3.2646,3.264,3.2689,3.2685,3.2712,3.2716,3.2714,3.2689,3.2726,3.2741,3.2852,3.2931,3.2777,3.2784,3.3147,3.3156,3.3163,3.3288,0,0,0,0,0,0,3.2526,3.2551,3.2609,3.263,3.265,3.2804,3.2694,3.269,3.2725,3.2714,3.2743,3.2743,3.2723,3.2841,3.286,3.2939,3.279,3.314,3.3151,3.3161,3.3277,3.3299,3.3319,0,0,0,0,0,3.2519,3.2642,3.2612,3.2632,3.2723,3.2809,3.282,3.2794,3.2732,3.279,3.2792,3.2742,3.2919,3.2853,3.2874,3.2956,3.3135,3.3148,3.316,3.3267,3.3295,3.3318,0,0,0,0,0,0,3.2632,3.2644,3.2611,3.2745,3.2776,3.2792,3.2865,3.2825,3.2875,3.2862,3.2828,3.2836,3.2955,3.2966,3.2893,3.3103,3.3017,3.3034,3.3091,3.3118,3.3138,3.3133,3.2797,0,0,0,0,0,3.2672,3.274,3.2748,3.2865,3.2882,3.2871,3.2908,3.2884,3.2916,3.2929,3.2939,3.2972,3.3034,3.3077,3.3135,3.3278,3.3282,3.3344,3.3365,3.3382,3.3398,3.3472,3.3499,3.3208,3.3207,3.3207,0,0,3.2756,3.2771,3.2817,3.2888,3.2909,3.2981,3.2883,3.2963,3.3015,3.2941,3.3046,3.3055,3.3089,3.3217,3.3273,3.323,3.3479,3.3398,3.3412,3.3418,3.3487,3.3515,3.3539,3.3216,3.3215,3.3213,0,0,3.2945,3.2965,3.3063,3.3086,3.3119,3.311,3.3133,3.3155,3.3157,3.3262,3.3207,3.3269,3.3378,3.3403,3.3431,3.3627,3.3582,3.3647,3.3757,3.3829,3.3852,3.3872,3.394,3.3965,3.3662,3.3662,3.3662,0,3.3046,3.3151,3.3119,3.3202,3.3234,3.3168,3.3267,3.3291,3.3342,3.3365,3.3316,3.3449,3.3468,3.3599,3.3646,3.3671,3.3696,3.3643,3.3851,3.3871,3.3889,3.3954,3.398,3.367,3.3669,3.3668,3.3667,0,3.3272,3.3346,3.3421,3.347,3.351,3.3601,3.3582,3.3627,3.36,3.3596,3.3702,3.3721,3.3781,3.381,3.3786,3.3937,3.3909,3.3856,3.3769,3.3925,3.3985,3.401,3.368,3.3678,3.3675,3.3674,0,0,3.3537,3.3564,3.3592,3.3612,3.3642,3.3698,3.3785,3.3841,3.388,3.3917,3.3988,3.408,3.403,3.4061,3.4038,3.4102,3.4253,3.4041,3.4041,3.4078,3.4419,3.4458,3.4487,3.4223,3.4228,3.4232,3.4416,0,3.3724,3.3873,3.3846,3.3991,3.4057,3.3994,3.4069,3.4096,3.4094,3.415,3.4148,3.4213,3.4143,3.4161,3.4221,3.4222,3.4321,3.4208,3.4289,3.4292,3.4281,3.4519,3.4561,3.4734,3.4439,3.4443,3.4446,0,3.3964,3.4007,3.4158,3.4175,3.4202,3.427,3.4318,3.4372,3.44,3.4394,3.4428,3.4392,3.4477,3.4388,3.4505,3.4429,3.446,3.4465,3.4471,3.4477,3.4378,3.453,3.4788,3.4814,3.4483,3.448,3.4477,0,3.4139,3.4235,3.4337,3.4356,3.4379,3.4428,3.444,3.4463,3.4497,3.4539,3.4561,3.4614,3.4642,3.4683,3.4662,3.46,3.4782,3.4692,3.4779,3.4779,3.482,3.4818,3.5086,3.4842,3.4842,3.4841,3.4841,0,3.4351,3.4446,3.4416,3.4479,3.4582,3.4549,3.4653,3.4657,3.4677,3.4739,3.4689,3.4748,3.4717,3.4774,3.4758,3.4856,3.487,3.4867,3.4861,3.4871,3.4871,3.489,3.4877,3.4848,3.4847,3.4845,3.4844,0,3.4564,3.4548,3.4655,3.4667,3.4672,3.4747,3.4757,3.4815,3.4808,3.4888,3.4904,3.4894,3.4958,3.4941,3.5012,3.5,3.5124,3.5104,3.5114,3.5109,3.5196,3.5187,3.5485,3.5521,3.5255,3.5258,3.526,0,3.47,3.4771,3.4789,3.4827,3.4842,3.4903,3.4937,3.4907,3.4945,3.498,3.5034,3.5093,3.5139,3.5244,3.5243,3.5296,3.5276,3.5376,3.5284,3.529,3.5275,3.5271,3.5277,3.5395,3.5398,3.54,3.5402,0,3.4942,3.493,3.4981,3.5029,3.5071,3.5108,3.514,3.5174,3.5145,3.519,3.5254,3.5289,3.5359,3.5418,3.5466,3.5478,3.5436,3.5431,3.5454,3.5464,3.5467,3.5465,3.5163,3.5425,3.5423,3.5421,3.542,3.5419,3.512,3.5179,3.52,3.5258,3.5279,3.5309,3.5363,3.5362,3.5415,3.5468,3.5447,3.552,3.5544,3.5603,3.5621,3.5677,3.5639,3.5673,3.5681,3.5689,3.5699,3.5458,3.5686,3.5686,3.5685,3.5685,3.5684,0,3.5358,3.5368,3.5422,3.5467,3.5512,3.5466,3.5499,3.554,3.5604,3.5629,3.5674,3.5747,3.5803,3.5805,3.5858,3.5902,3.5884,3.5917,3.5913,3.5916,3.5731,3.5706,3.5931,3.5931,3.593,3.593,3.593,3.593,3.5487,3.5584,3.5574,3.568,3.5689,3.5759,3.5781,3.5808,3.5827,3.591,3.5956,3.5956,3.5972,3.6024,3.6074,3.6073,3.6094,3.6134,3.6126,3.5954,3.5929,3.5906,3.5881,3.6139,3.614,3.6305,3.6307,3.6308]},{"header":{"parameterUnit":"m.s-1","parameterCategory":1,"la1":30.2991,"la2":30.254,"lo1":-89.0895,"lo2":-89.0444,"dy":0.0017,"dx":0.0017,"nx":28,"ny":28,"refTime":"2025-07-19T21:00:00:Z","depth":0,"parameterNumber":3,"parameterNumberName":"V-component_of_WINDS"},"data":[0,0,0,0,0,0,0,0,0,0,0,0,0,0,0,0,0,0,0,0,0,0,0,0,0,0,0,0,0,0,0,0,0,0,0,0,0,0,0,0,0,0,0,0,0,0,0,0,0,0,0,0,0,0,0,0,0,0,5.0829,5.0829,0,5.0855,5.0856,5.0856,5.0777,5.0775,5.0773,5.077,5.0795,5.0798,5.0801,0,0,0,0,0,0,0,0,0,0,0,0,0,5.0705,5.0708,5.0829,5.0829,5.0829,5.0855,5.0856,5.0856,5.0778,5.0775,5.0772,5.0769,5.0794,5.0797,5.0801,0,0,0,0,0,0,0,0,0,0,0,0,0,5.0748,5.0709,5.0829,5.0794,5.0791,5.0855,5.0856,5.0856,5.0778,5.0775,5.0771,5.0768,5.0793,5.0797,5.0801,5.09,0,0,5.0815,5.0816,0,0,0,0,0,0,0,0,5.0746,5.0753,5.0798,5.0796,5.0793,5.0809,5.0821,5.0871,5.0779,5.0783,5.077,5.0766,5.0802,5.0806,5.0819,5.0902,5.0903,5.0815,5.0818,5.0819,5.0821,0,0,0,0,0,0,0,5.0743,5.0751,5.0839,5.0799,5.0796,5.0775,5.0777,5.083,5.0813,5.0782,5.0777,5.0781,5.08,5.0815,5.0819,5.0903,5.0815,5.0819,5.0821,5.0823,5.1066,5.1069,0,0,0,0,0,0,5.0745,5.0749,5.0838,5.084,5.076,5.078,5.0782,5.0808,5.0812,5.0809,5.0784,5.0777,5.0809,5.0814,5.0819,5.0934,5.0819,5.0824,5.0826,5.1062,5.1067,5.1071,0,0,0,0,0,0,5.0743,5.0754,5.0837,5.0793,5.0802,5.0786,5.0815,5.081,5.0824,5.0813,5.0809,5.0802,5.0806,5.0813,5.088,5.0933,5.0825,5.0829,5.1057,5.1063,5.1069,5.1165,0,0,0,0,0,0,5.074,5.0754,5.0792,5.0795,5.0805,5.09,5.0818,5.0813,5.0833,5.0824,5.0829,5.0827,5.0804,5.0874,5.0885,5.0937,5.0833,5.1052,5.106,5.1067,5.1157,5.1173,5.1187,0,0,0,0,0,5.0736,5.0818,5.0795,5.0806,5.0853,5.0903,5.0908,5.0882,5.0837,5.0875,5.0867,5.0826,5.0926,5.0882,5.0893,5.0948,5.1049,5.1058,5.1066,5.115,5.117,5.1187,0,0,0,0,0,0,5.0822,5.0818,5.0792,5.0878,5.0891,5.089,5.0936,5.0904,5.093,5.092,5.0885,5.0887,5.096,5.0961,5.0911,5.1042,5.098,5.0991,5.1039,5.1058,5.1073,5.1071,5.0836,0,0,0,0,0,5.0851,5.0893,5.0887,5.0963,5.0971,5.0953,5.0974,5.0952,5.0964,5.0969,5.0966,5.0979,5.1012,5.1036,5.1066,5.1156,5.1155,5.1199,5.1215,5.1227,5.1237,5.1282,5.1301,5.1099,5.1099,5.1099,0,0,5.0911,5.0914,5.0943,5.0981,5.0988,5.1031,5.0958,5.1007,5.1038,5.0976,5.1039,5.1038,5.1049,5.1128,5.1162,5.113,5.1293,5.1238,5.1248,5.1251,5.1293,5.1312,5.1329,5.1105,5.1104,5.1103,0,0,5.1043,5.1051,5.1114,5.1123,5.1136,5.1123,5.1138,5.1141,5.1138,5.1201,5.1155,5.119,5.125,5.1259,5.1272,5.1405,5.1368,5.1416,5.1495,5.154,5.1556,5.157,5.1615,5.1633,5.1426,5.1427,5.1427,0,5.1116,5.118,5.115,5.1202,5.1219,5.1165,5.1228,5.1238,5.126,5.1272,5.1237,5.1309,5.1313,5.1392,5.1425,5.1438,5.1452,5.1415,5.1556,5.157,5.1582,5.1625,5.1643,5.1432,5.1432,5.1431,5.1431,0,5.1268,5.1312,5.1362,5.1385,5.1407,5.1464,5.1442,5.1468,5.1444,5.1434,5.1498,5.1501,5.153,5.1547,5.1524,5.1623,5.1602,5.1562,5.1498,5.1608,5.1648,5.1664,5.144,5.1438,5.1437,5.1435,0,0,5.1455,5.146,5.1478,5.1487,5.1497,5.153,5.1583,5.1613,5.1635,5.1651,5.1694,5.1745,5.1708,5.1722,5.1699,5.1739,5.1842,5.1693,5.1693,5.1719,5.1948,5.1978,5.1997,5.1818,5.1821,5.1823,5.1947,0,5.1582,5.1675,5.1649,5.1741,5.1781,5.173,5.1776,5.1786,5.1779,5.181,5.1801,5.1837,5.1785,5.1793,5.183,5.1822,5.1887,5.1813,5.1855,5.1857,5.1853,5.2018,5.205,5.2166,5.1962,5.1965,5.1967,0,5.1744,5.1767,5.1863,5.1864,5.188,5.1922,5.1946,5.1977,5.1987,5.1978,5.1994,5.1963,5.2013,5.195,5.2019,5.1969,5.1985,5.1983,5.1987,5.1988,5.1918,5.2023,5.2203,5.222,5.1992,5.199,5.1988,0,5.1868,5.1923,5.1987,5.1996,5.2,5.2031,5.2033,5.204,5.2058,5.2079,5.209,5.2116,5.213,5.2151,5.2127,5.2083,5.2198,5.2133,5.2191,5.2192,5.2216,5.2215,5.24,5.223,5.2229,5.2229,5.2229,0,5.2013,5.2073,5.2043,5.2082,5.2147,5.2116,5.2181,5.2178,5.2184,5.222,5.2179,5.2213,5.218,5.2212,5.2194,5.2252,5.2259,5.2252,5.2246,5.2255,5.2256,5.2264,5.2255,5.2234,5.2233,5.2232,5.2231,0,5.2162,5.2144,5.221,5.2208,5.2209,5.2257,5.2254,5.229,5.2278,5.2325,5.2334,5.2317,5.2351,5.233,5.2365,5.2353,5.2428,5.2412,5.2425,5.242,5.2478,5.2473,5.2674,5.2698,5.2514,5.2516,5.2517,0,5.2255,5.23,5.2302,5.2324,5.2329,5.2365,5.2384,5.2355,5.2376,5.2389,5.2423,5.2454,5.2477,5.2535,5.2525,5.2551,5.2534,5.2603,5.2538,5.2544,5.2533,5.253,5.2533,5.2615,5.2617,5.2619,5.2621,0,5.242,5.2409,5.2438,5.2463,5.2487,5.2506,5.2521,5.2541,5.2511,5.2537,5.2572,5.259,5.2626,5.2657,5.2679,5.268,5.2645,5.2641,5.2656,5.2664,5.2669,5.2666,5.2459,5.2637,5.2635,5.2634,5.2633,5.2632,5.2542,5.2579,5.2586,5.2619,5.2628,5.2642,5.2675,5.2668,5.2697,5.2724,5.2705,5.2746,5.2753,5.2779,5.2785,5.2816,5.2788,5.2809,5.2814,5.2819,5.2827,5.2666,5.282,5.2819,5.2819,5.2819,5.2818,0,5.2704,5.2706,5.2737,5.2759,5.2784,5.275,5.2765,5.2788,5.2825,5.2835,5.2858,5.2898,5.2928,5.292,5.2946,5.2972,5.2956,5.298,5.2976,5.2977,5.2851,5.2835,5.2992,5.2991,5.2991,5.2991,5.2991,5.2991,5.2791,5.2851,5.284,5.2903,5.2904,5.2944,5.2955,5.2968,5.2975,5.3022,5.3046,5.3041,5.3043,5.3069,5.3094,5.309,5.3101,5.313,5.3121,5.3003,5.2986,5.297,5.2954,5.3133,5.3133,5.3244,5.3245,5.3245]}]]